Flag for U.S.A. Weather past 2 weeks in Olympia, Washington, U.S.A.

Now
47 °F

Light rain. Fog.


Feels Like: 41 °F
Forecast: 42 / 53 °F
Wind: 13 mph from South

Location: Olympia Airport


UV Index: 0 (Low)

Visibility: 6 mi


Pressure: 29.91 "Hg

Humidity: 86%

Dew point: 43 °F

Location of OlympiaLocation

Historic Weather in Olympia

°F

Olympia temperature yesterday

Maximum temperature yesterday: 51 °F (at 10:54 AM)
Minimum temperature yesterday: 40 °F (at 6:54 AM)
Average temperature yesterday: 46 °F

Past Weeks' High & Low Weather Summary

 TemperatureHumidityPressure
High69 °F (Apr 13, 4:54 PM)100% (Apr 9, 4:54 AM)30.31 "Hg (Apr 9, 4:54 AM)
Low31 °F (Apr 10, 6:01 AM)23% (Apr 13, 3:54 PM)29.74 "Hg (Apr 17, 5:54 PM)
Average49 °F76%30.08 "Hg
* Reported Apr 8 10:54 AM — Apr 23 10:54 AM, Olympia, Weather by CustomWeather, © 2014

Note: Actual official high and low records may vary slightly from our data, if they occured in-between our weather recording intervals... More about our weather records

Advertising

Historic Weather Conditions — Data for Previous 24 hours

 ConditionsComfort  
Time TempWeatherWind HumidityBarometerVisibility
10:54 AM
Apr 23
47 °FLight rain. Fog.13 mph86%29.91 "Hg6 mi
9:54 AM46 °FLight rain. Fog.13 mph89%29.90 "Hg6 mi
8:54 AM46 °FLight rain. Fog.10 mph93%29.91 "Hg4 mi
7:54 AM44 °FLow clouds.3 mph93%29.91 "Hg8 mi
7:00 AM43 °FMostly cloudy.3 mph93%29.91 "Hg10 mi
5:54 AM42 °FLow clouds.6 mph96%29.91 "Hg10 mi
4:54 AM43 °FMostly cloudy.9 mph93%29.90 "Hg10 mi
3:54 AM43 °FLight rain. Overcast.No wind93%29.90 "Hg10 mi
2:54 AM43 °FOvercast.5 mph93%29.89 "Hg9 mi
1:54 AM43 °FLight rain. Fog.6 mph93%29.90 "Hg4 mi
12:54 AM43 °FLight rain. Fog.6 mph97%29.90 "Hg4 mi
11:54 PM
Apr 22
44 °FLight rain. Mostly cloudy.10 mph89%29.89 "Hg9 mi
10:54 PM44 °FLight rain. Mostly cloudy.6 mph93%29.89 "Hg7 mi
9:54 PM43 °FLight rain. Overcast.8 mph93%29.89 "Hg7 mi
8:54 PM45 °FLight rain. Fog.8 mph90%29.89 "Hg4 mi
7:54 PM46 °FLight rain. Fog.7 mph86%29.88 "Hg5 mi
6:54 PM47 °FLight rain. Overcast.7 mph83%29.90 "Hg5 mi
5:54 PM48 °FLight rain. Cloudy.8 mph80%29.89 "Hg10 mi
4:54 PM51 °FMostly cloudy.5 mph69%29.90 "Hg10 mi
3:54 PM49 °FMostly cloudy.8 mph71%29.91 "Hg10 mi
2:54 PM49 °FMostly cloudy.7 mph71%29.91 "Hg10 mi
1:54 PM49 °FRain. Cloudy.5 mph71%29.91 "Hg6 mi
12:54 PM51 °FBroken clouds.13 mph59%29.91 "Hg10 mi
Weather by CustomWeather, © 2014

See weather overview